Simultaneous Nadir Overpasses (SNOs) Predictions

Prediction of SNOs between NOAA-20 and TERRA Satellite Orbit:

Table of predicted SNOs for the next 14.0 days since TLE Epoch: 11/30/2024
Index Date (NOAA-20) Time (NOAA-20) Lat,Lon (NOAA-20) SZA (NOAA-20 ) Date (TERRA) Time (TERRA) Lat,Lon (TERRA) SZA (TERRA ) Distance(km) Time Diff (sec)
1 11/30/2024 17:37:43 -73.29, 85.88 84.89 11/30/2024 17:38:54 -73.17, 87.02 85.05 38.81 71
2 11/30/2024 18:28:21 72.89,-105.93 94.69 11/30/2024 18:28:19 72.90,-105.84 94.70 3.04 2
3 11/30/2024 19:18:57 -72.50, 62.19 85.72 11/30/2024 19:17:46 -72.55, 61.17 85.63 34.60 71
4 12/03/2024 04:49:56 -72.93, -81.42 84.90 12/03/2024 04:51:05 -72.96, -81.47 84.89 3.29 69
5 12/03/2024 05:40:41 72.88, 85.99 95.05 12/03/2024 05:40:26 72.89, 86.07 95.06 2.90 15
6 12/03/2024 06:31:08 -72.03,-104.98 85.84 12/03/2024 06:30:02 -72.06,-107.76 85.72 95.36 66
7 12/05/2024 16:02:17 -72.94, 110.48 84.57 12/05/2024 16:03:12 -72.95, 110.44 84.57 1.74 55
8 12/05/2024 16:53:02 72.89, -82.12 95.39 12/05/2024 16:52:33 72.88, -82.02 95.37 3.62 29
9 12/08/2024 03:14:38 -72.96, -57.65 84.27 12/08/2024 03:15:18 -72.93, -57.66 84.30 2.95 40
10 12/08/2024 04:05:22 72.87, 109.85 95.65 12/08/2024 04:04:39 72.85, 109.87 95.63 1.65 43
11 12/10/2024 14:26:58 -72.94, 134.31 84.05 12/10/2024 14:27:22 -72.95, 134.33 84.04 2.04 24
12 12/10/2024 15:17:42 72.85, -58.21 95.87 12/10/2024 15:16:43 72.87, -58.16 95.89 2.65 59
13 12/13/2024 00:48:47 73.60, 157.44 96.85 12/13/2024 00:49:54 73.52, 159.73 96.68 72.37 67
14 12/13/2024 01:39:18 -72.93, -33.77 83.87 12/13/2024 01:39:26 -72.92, -33.80 83.88 1.95 8



Historial Predications of SNOs between NOAA-20 and TERRA
